Overview Statistics Trail Chart Weather Telemetry Raw packets
 

This is the latest recevied weather packets stored in our database for station/object W7TRD. If no packets are shown the sender has not sent any weather packets the latest 10 day(s).

<< 35 36 37 38 39 40 41 >>
Time Temp. Humidity Pressure Rain* Wind** Luminosity Snow
1788381136 14.44° C 96% 1007.3 hPa 0 mm - 83 W/m² -
1788380830 14.44° C 97% 1007.3 hPa 1.78 mm - 85 W/m² -
1788380527 14.44° C 97% 1007.2 hPa 3.05 mm - 58 W/m² -
1788380223 14.44° C 97% 1007.1 hPa 3.05 mm - 54 W/m² -
1788379922 14.44° C 97% 1007.5 hPa 3.05 mm - 62 W/m² -
1788379617 14.44° C 96% 1007.5 hPa 3.05 mm - 63 W/m² -
1788379313 14.44° C 96% 1007.6 hPa 4.83 mm - 68 W/m² -
1788379009 14.44° C 96% 1007.5 hPa 4.83 mm - 71 W/m² -
1788378708 14.44° C 96% 1007.4 hPa 3.05 mm - 65 W/m² -
1788378407 14.44° C 96% 1007.7 hPa 3.05 mm - 86 W/m² -
1788378102 15° C 96% 1007.7 hPa 3.05 mm - 81 W/m² -
1788377798 14.44° C 95% 1007.9 hPa 1.27 mm - 91 W/m² -
1788377498 14.44° C 95% 1007.8 hPa 0 mm - 92 W/m² -
1788377197 14.44° C 95% 1007.6 hPa 1.78 mm - 79 W/m² -
1788376896 14.44° C 95% 1007.9 hPa 3.05 mm - 81 W/m² -
1788376592 14.44° C 95% 1007.8 hPa 1.27 mm - 65 W/m² -
1788376291 14.44° C 94% 1007.7 hPa 1.78 mm - 64 W/m² -
1788375987 14.44° C 94% 1007.7 hPa 3.05 mm - 59 W/m² -
1788375682 14.44° C 94% 1008 hPa 1.27 mm - 61 W/m² -
1788375378 15° C 93% 1008.1 hPa 0 mm - 71 W/m² -
1788375074 15° C 93% 1008.1 hPa 1.78 mm - 89 W/m² -
1788374768 15° C 92% 1008.1 hPa 1.78 mm - 90 W/m² -
1788374464 15° C 92% 1008.3 hPa 1.78 mm - 90 W/m² -
1788374160 15° C 91% 1008.3 hPa 1.78 mm - 107 W/m² -
1788373856 15° C 91% 1008.4 hPa 1.27 mm - 97 W/m² -

* Rain latest hour (hover to see other rain measurements)
** Current wind speed in m/s (hover to see current wind gust speed)